Year,Month,Day,Hour,Minute,Value (Times are PST for temperature in C)
2014,08,24,00,00,17.90
2014,08,24,00,01,17.90
2014,08,24,00,02,17.90
2014,08,24,00,03,18.00
2014,08,24,00,04,18.00
2014,08,24,00,05,18.00
2014,08,24,00,06,18.10
2014,08,24,00,07,18.10
2014,08,24,00,08,18.10
2014,08,24,00,09,18.10
2014,08,24,00,10,18.10
2014,08,24,00,11,18.10
2014,08,24,00,12,18.10
2014,08,24,00,13,18.20
2014,08,24,00,14,18.20
2014,08,24,00,15,18.20
2014,08,24,00,16,18.20
2014,08,24,00,17,18.20
2014,08,24,00,18,18.20
2014,08,24,00,19,18.20
2014,08,24,00,20,18.20
2014,08,24,00,21,18.20
2014,08,24,00,22,18.20
2014,08,24,00,23,18.20
2014,08,24,00,24,18.20
2014,08,24,00,25,18.10
2014,08,24,00,26,18.10
2014,08,24,00,27,18.00
2014,08,24,00,28,17.90
2014,08,24,00,29,17.90
2014,08,24,00,30,17.80
2014,08,24,00,31,17.80
2014,08,24,00,32,17.80
2014,08,24,00,33,17.70
2014,08,24,00,34,17.70
2014,08,24,00,35,17.60
2014,08,24,00,36,17.60
2014,08,24,00,37,17.60
2014,08,24,00,38,17.60
2014,08,24,00,39,17.60
2014,08,24,00,40,17.60
2014,08,24,00,41,17.60
2014,08,24,00,42,17.60
2014,08,24,00,43,17.70
2014,08,24,00,44,17.70
2014,08,24,00,45,17.70
2014,08,24,00,46,17.80
2014,08,24,00,47,17.80
2014,08,24,00,48,17.80
2014,08,24,00,49,17.80
2014,08,24,00,50,17.70
2014,08,24,00,51,17.70
2014,08,24,00,52,17.70
2014,08,24,00,53,17.70
2014,08,24,00,54,17.60
2014,08,24,00,55,17.60
2014,08,24,00,56,17.60
2014,08,24,00,57,17.60
2014,08,24,00,58,17.50
2014,08,24,00,59,17.50
2014,08,24,01,00,17.40
2014,08,24,01,01,17.40
2014,08,24,01,02,17.40
2014,08,24,01,03,17.30
2014,08,24,01,04,17.30
2014,08,24,01,05,17.30
2014,08,24,01,06,17.30
2014,08,24,01,07,17.30
2014,08,24,01,08,17.30
2014,08,24,01,09,17.30
2014,08,24,01,10,17.30
2014,08,24,01,11,17.30
2014,08,24,01,12,17.30
2014,08,24,01,13,17.20
2014,08,24,01,14,17.20
2014,08,24,01,15,17.20
2014,08,24,01,16,17.20
2014,08,24,01,17,17.20
2014,08,24,01,18,17.20
2014,08,24,01,19,17.20
2014,08,24,01,20,17.20
2014,08,24,01,21,17.20
2014,08,24,01,22,17.20
2014,08,24,01,23,17.20
2014,08,24,01,24,17.20
2014,08,24,01,25,17.20
2014,08,24,01,26,17.20
2014,08,24,01,27,17.20
2014,08,24,01,28,17.20
2014,08,24,01,29,17.20
2014,08,24,01,30,17.20
2014,08,24,01,31,17.20
2014,08,24,01,32,17.20
2014,08,24,01,33,17.20
2014,08,24,01,34,17.20
2014,08,24,01,35,17.20
2014,08,24,01,36,17.20
2014,08,24,01,37,17.20
2014,08,24,01,38,17.20
2014,08,24,01,39,17.20
2014,08,24,01,40,17.20
2014,08,24,01,41,17.20
2014,08,24,01,42,17.10
2014,08,24,01,43,17.10
2014,08,24,01,44,17.10
2014,08,24,01,45,17.10
2014,08,24,01,46,17.10
2014,08,24,01,47,17.10
2014,08,24,01,48,17.10
2014,08,24,01,49,17.00
2014,08,24,01,50,17.00
2014,08,24,01,51,17.00
2014,08,24,01,52,16.90
2014,08,24,01,53,16.90
2014,08,24,01,54,16.90
2014,08,24,01,55,16.90
2014,08,24,01,56,16.90
2014,08,24,01,57,16.90
2014,08,24,01,58,16.80
2014,08,24,01,59,16.80
2014,08,24,02,00,16.80
2014,08,24,02,01,16.80
2014,08,24,02,02,16.80
2014,08,24,02,03,16.80
2014,08,24,02,04,16.80
2014,08,24,02,05,16.80
2014,08,24,02,06,16.80
2014,08,24,02,07,16.80
2014,08,24,02,08,16.80
2014,08,24,02,09,16.80
2014,08,24,02,10,16.70
2014,08,24,02,11,16.70
2014,08,24,02,12,16.70
2014,08,24,02,13,16.70
2014,08,24,02,14,16.70
2014,08,24,02,15,16.70
2014,08,24,02,16,16.70
2014,08,24,02,17,16.70
2014,08,24,02,18,16.70
2014,08,24,02,19,16.70
2014,08,24,02,20,16.70
2014,08,24,02,21,16.60
2014,08,24,02,22,16.60
2014,08,24,02,23,16.60
2014,08,24,02,24,16.60
2014,08,24,02,25,16.60
2014,08,24,02,26,16.60
2014,08,24,02,27,16.60
2014,08,24,02,28,16.60
2014,08,24,02,29,16.60
2014,08,24,02,30,16.60
2014,08,24,02,31,16.60
2014,08,24,02,32,16.50
2014,08,24,02,33,16.50
2014,08,24,02,34,16.50
2014,08,24,02,35,16.50
2014,08,24,02,36,16.50
2014,08,24,02,37,16.50
2014,08,24,02,38,16.50
2014,08,24,02,39,16.50
2014,08,24,02,40,16.50
2014,08,24,02,41,16.40
2014,08,24,02,42,16.40
2014,08,24,02,43,16.40
2014,08,24,02,44,16.40
2014,08,24,02,45,16.40
2014,08,24,02,46,16.40
2014,08,24,02,47,16.40
2014,08,24,02,48,16.40
2014,08,24,02,49,16.30
2014,08,24,02,50,16.30
2014,08,24,02,51,16.30
2014,08,24,02,52,16.30
2014,08,24,02,53,16.30
2014,08,24,02,54,16.30
2014,08,24,02,55,16.30
2014,08,24,02,56,16.20
2014,08,24,02,57,16.20
2014,08,24,02,58,16.20
2014,08,24,02,59,16.20
2014,08,24,03,00,16.10
2014,08,24,03,01,16.10
2014,08,24,03,02,16.10
2014,08,24,03,03,16.10
2014,08,24,03,04,16.10
2014,08,24,03,05,16.10
2014,08,24,03,06,16.10
2014,08,24,03,07,16.10
2014,08,24,03,08,16.00
2014,08,24,03,09,16.00
2014,08,24,03,10,16.00
2014,08,24,03,11,15.90
2014,08,24,03,12,15.90
2014,08,24,03,13,15.90
2014,08,24,03,14,15.90
2014,08,24,03,15,15.90
2014,08,24,03,16,15.90
2014,08,24,03,17,15.90
2014,08,24,03,18,15.90
2014,08,24,03,19,15.90
2014,08,24,03,20,15.90
2014,08,24,03,21,15.90
2014,08,24,03,22,15.90
2014,08,24,03,23,15.90
2014,08,24,03,24,15.90
2014,08,24,03,25,15.80
2014,08,24,03,26,15.80
2014,08,24,03,27,15.80
2014,08,24,03,28,15.80
2014,08,24,03,29,15.80
2014,08,24,03,30,15.80
2014,08,24,03,31,15.80
2014,08,24,03,32,15.80
2014,08,24,03,33,15.70
2014,08,24,03,34,15.70
2014,08,24,03,35,15.70
2014,08,24,03,36,15.70
2014,08,24,03,37,15.70
2014,08,24,03,38,15.70
2014,08,24,03,39,15.70
2014,08,24,03,40,15.60
2014,08,24,03,41,15.60
2014,08,24,03,42,15.50
2014,08,24,03,43,15.50
2014,08,24,03,44,15.40
2014,08,24,03,45,15.40
2014,08,24,03,46,15.40
2014,08,24,03,47,15.30
2014,08,24,03,48,15.30
2014,08,24,03,49,15.30
2014,08,24,03,50,15.30
2014,08,24,03,51,15.30
2014,08,24,03,52,15.30
2014,08,24,03,53,15.20
2014,08,24,03,54,15.20
2014,08,24,03,55,15.20
2014,08,24,03,56,15.10
2014,08,24,03,57,15.10
2014,08,24,03,58,15.10
2014,08,24,03,59,15.10
2014,08,24,04,00,15.10
2014,08,24,04,01,15.10
2014,08,24,04,02,15.10
2014,08,24,04,03,15.10
2014,08,24,04,04,15.10
2014,08,24,04,05,15.10
2014,08,24,04,06,15.20
2014,08,24,04,07,15.20
2014,08,24,04,08,15.20
2014,08,24,04,09,15.20
2014,08,24,04,10,15.10
2014,08,24,04,11,15.10
2014,08,24,04,12,15.10
2014,08,24,04,13,15.10
2014,08,24,04,14,15.10
2014,08,24,04,15,15.10
2014,08,24,04,16,15.10
2014,08,24,04,17,15.00
2014,08,24,04,18,15.00
2014,08,24,04,19,14.90
2014,08,24,04,20,14.90
2014,08,24,04,21,14.90
2014,08,24,04,22,14.90
2014,08,24,04,23,14.90
2014,08,24,04,24,14.90
2014,08,24,04,25,14.90
2014,08,24,04,26,14.90
2014,08,24,04,27,14.90
2014,08,24,04,28,14.90
2014,08,24,04,29,14.90
2014,08,24,04,30,14.90
2014,08,24,04,31,14.90
2014,08,24,04,32,14.90
2014,08,24,04,33,14.90
2014,08,24,04,34,14.90
2014,08,24,04,35,15.00
2014,08,24,04,36,15.00
2014,08,24,04,37,15.00
2014,08,24,04,38,15.10
2014,08,24,04,39,15.10
2014,08,24,04,40,15.10
2014,08,24,04,41,15.10
2014,08,24,04,42,15.10
2014,08,24,04,43,15.10
2014,08,24,04,44,15.00
2014,08,24,04,45,15.00
2014,08,24,04,46,15.00
2014,08,24,04,47,15.00
2014,08,24,04,48,15.00
2014,08,24,04,49,14.90
2014,08,24,04,50,14.90
2014,08,24,04,51,14.90
2014,08,24,04,52,14.90
2014,08,24,04,53,14.90
2014,08,24,04,54,14.90
2014,08,24,04,55,14.90
2014,08,24,04,56,14.90
2014,08,24,04,57,14.80
2014,08,24,04,58,14.80
2014,08,24,04,59,14.80
2014,08,24,05,00,14.80
2014,08,24,05,01,14.80
2014,08,24,05,02,14.80
2014,08,24,05,03,14.70
2014,08,24,05,04,14.70
2014,08,24,05,05,14.70
2014,08,24,05,06,14.70
2014,08,24,05,07,14.70
2014,08,24,05,08,14.70
2014,08,24,05,09,14.70
2014,08,24,05,10,14.70
2014,08,24,05,11,14.70
2014,08,24,05,12,14.70
2014,08,24,05,13,14.70
2014,08,24,05,14,14.70
2014,08,24,05,15,14.70
2014,08,24,05,16,14.70
2014,08,24,05,17,14.70
2014,08,24,05,18,14.70
2014,08,24,05,19,14.70
2014,08,24,05,20,14.70
2014,08,24,05,21,14.70
2014,08,24,05,22,14.70
2014,08,24,05,23,14.70
2014,08,24,05,24,14.70
2014,08,24,05,25,14.70
2014,08,24,05,26,14.70
2014,08,24,05,27,14.70
2014,08,24,05,28,14.70
2014,08,24,05,29,14.70
2014,08,24,05,30,14.70
2014,08,24,05,31,14.70
2014,08,24,05,32,14.70
2014,08,24,05,33,14.70
2014,08,24,05,34,14.70
2014,08,24,05,35,14.70
2014,08,24,05,36,14.70
2014,08,24,05,37,14.70
2014,08,24,05,38,14.70
2014,08,24,05,39,14.70
2014,08,24,05,40,14.70
2014,08,24,05,41,14.60
2014,08,24,05,42,14.60
2014,08,24,05,43,14.60
2014,08,24,05,44,14.70
2014,08,24,05,45,14.70
2014,08,24,05,46,14.60
2014,08,24,05,47,14.60
2014,08,24,05,48,14.60
2014,08,24,05,49,14.60
2014,08,24,05,50,14.60
2014,08,24,05,51,14.60
2014,08,24,05,52,14.50
2014,08,24,05,53,14.50
2014,08,24,05,54,14.50
2014,08,24,05,55,14.40
2014,08,24,05,56,14.40
2014,08,24,05,57,14.40
2014,08,24,05,58,14.40
2014,08,24,05,59,14.40
2014,08,24,06,00,14.40
2014,08,24,06,01,14.30
2014,08,24,06,02,14.30
2014,08,24,06,03,14.30
2014,08,24,06,04,14.30
2014,08,24,06,05,14.20
2014,08,24,06,06,14.20
2014,08,24,06,07,14.20
2014,08,24,06,08,14.20
2014,08,24,06,09,14.20
2014,08,24,06,10,14.20
2014,08,24,06,11,14.20
2014,08,24,06,12,14.20
2014,08,24,06,13,14.20
2014,08,24,06,14,14.20
2014,08,24,06,15,14.20
2014,08,24,06,16,14.20
2014,08,24,06,17,14.10
2014,08,24,06,18,14.10
2014,08,24,06,19,14.10
2014,08,24,06,20,14.10
2014,08,24,06,21,14.10
2014,08,24,06,22,14.10
2014,08,24,06,23,14.10
2014,08,24,06,24,14.10
2014,08,24,06,25,14.10
2014,08,24,06,26,14.00
2014,08,24,06,27,14.00
2014,08,24,06,28,14.00
2014,08,24,06,29,14.00
2014,08,24,06,30,14.00
2014,08,24,06,31,13.90
2014,08,24,06,32,13.90
2014,08,24,06,33,13.90
2014,08,24,06,34,13.90
2014,08,24,06,35,13.90
2014,08,24,06,36,13.90
2014,08,24,06,37,13.90
2014,08,24,06,38,13.90
2014,08,24,06,39,13.90
2014,08,24,06,40,13.90
2014,08,24,06,41,14.00
2014,08,24,06,42,14.00
2014,08,24,06,43,14.00
2014,08,24,06,44,14.00
2014,08,24,06,45,14.00
2014,08,24,06,46,14.00
2014,08,24,06,47,14.00
2014,08,24,06,48,14.00
2014,08,24,06,49,14.00
2014,08,24,06,50,14.00
2014,08,24,06,51,14.00
2014,08,24,06,52,14.00
2014,08,24,06,53,14.00
2014,08,24,06,54,14.00
2014,08,24,06,55,14.00
2014,08,24,06,56,14.00
2014,08,24,06,57,14.00
2014,08,24,06,58,14.00
2014,08,24,06,59,14.10
2014,08,24,07,00,14.10
2014,08,24,07,01,14.10
2014,08,24,07,02,14.00
2014,08,24,07,03,14.10
2014,08,24,07,04,14.10
2014,08,24,07,05,14.10
2014,08,24,07,06,14.10
2014,08,24,07,07,14.10
2014,08,24,07,08,14.10
2014,08,24,07,09,14.10
2014,08,24,07,10,14.10
2014,08,24,07,11,14.10
2014,08,24,07,12,14.10
2014,08,24,07,13,14.10
2014,08,24,07,14,14.20
2014,08,24,07,15,14.20
2014,08,24,07,16,14.20
2014,08,24,07,17,14.30
2014,08,24,07,18,14.30
2014,08,24,07,19,14.30
2014,08,24,07,20,14.30
2014,08,24,07,21,14.40
2014,08,24,07,22,14.40
2014,08,24,07,23,14.40
2014,08,24,07,24,14.40
2014,08,24,07,25,14.40
2014,08,24,07,26,14.40
2014,08,24,07,27,14.50
2014,08,24,07,28,14.50
2014,08,24,07,29,14.50
2014,08,24,07,30,14.50
2014,08,24,07,31,14.60
2014,08,24,07,32,14.60
2014,08,24,07,33,14.60
2014,08,24,07,34,14.60
2014,08,24,07,35,14.60
2014,08,24,07,36,14.60
2014,08,24,07,37,14.60
2014,08,24,07,38,14.60
2014,08,24,07,39,14.60
2014,08,24,07,40,14.60
2014,08,24,07,41,14.60
2014,08,24,07,42,14.60
2014,08,24,07,43,14.60
2014,08,24,07,44,14.60
2014,08,24,07,45,14.70
2014,08,24,07,46,14.70
2014,08,24,07,47,14.70
2014,08,24,07,48,14.70
2014,08,24,07,49,14.70
2014,08,24,07,50,14.70
2014,08,24,07,51,14.70
2014,08,24,07,52,14.70
2014,08,24,07,53,14.80
2014,08,24,07,54,14.80
2014,08,24,07,55,14.80
2014,08,24,07,56,14.90
2014,08,24,07,57,14.90
2014,08,24,07,58,14.90
2014,08,24,07,59,14.90
2014,08,24,08,00,15.00
2014,08,24,08,01,14.90
2014,08,24,08,02,14.90
2014,08,24,08,03,15.00
2014,08,24,08,04,15.00
2014,08,24,08,05,15.00
2014,08,24,08,06,15.00
2014,08,24,08,07,15.00
2014,08,24,08,08,15.00
2014,08,24,08,09,15.00
2014,08,24,08,10,15.00
2014,08,24,08,11,15.10
2014,08,24,08,12,15.10
2014,08,24,08,13,15.10
2014,08,24,08,14,15.10
2014,08,24,08,15,15.10
2014,08,24,08,16,15.20
2014,08,24,08,17,15.20
2014,08,24,08,18,15.20
2014,08,24,08,19,15.30
2014,08,24,08,20,15.30
2014,08,24,08,21,15.30
2014,08,24,08,22,15.40
2014,08,24,08,23,15.40
2014,08,24,08,24,15.50
2014,08,24,08,25,15.50
2014,08,24,08,26,15.60
2014,08,24,08,27,15.60
2014,08,24,08,28,15.60
2014,08,24,08,29,15.70
2014,08,24,08,30,15.70
2014,08,24,08,31,15.70
2014,08,24,08,32,15.70
2014,08,24,08,33,15.70
2014,08,24,08,34,15.80
2014,08,24,08,35,15.80
2014,08,24,08,36,15.80
2014,08,24,08,37,15.80
2014,08,24,08,38,15.90
2014,08,24,08,39,15.90
2014,08,24,08,40,15.90
2014,08,24,08,41,16.00
2014,08,24,08,42,16.10
2014,08,24,08,43,16.10
2014,08,24,08,44,16.30
2014,08,24,08,45,16.40
2014,08,24,08,46,16.50
2014,08,24,08,47,16.50
2014,08,24,08,48,16.60
2014,08,24,08,49,16.70
2014,08,24,08,50,16.80
2014,08,24,08,51,16.80
2014,08,24,08,52,16.90
2014,08,24,08,53,16.90
2014,08,24,08,54,17.00
2014,08,24,08,55,17.00
2014,08,24,08,56,17.10
2014,08,24,08,57,17.20
2014,08,24,08,58,17.30
2014,08,24,08,59,17.30
2014,08,24,09,00,17.40
2014,08,24,09,01,17.40
2014,08,24,09,02,17.40
2014,08,24,09,03,17.50
2014,08,24,09,04,17.50
2014,08,24,09,05,17.60
2014,08,24,09,06,17.60
2014,08,24,09,07,17.70
2014,08,24,09,08,17.70
2014,08,24,09,09,17.70
2014,08,24,09,10,17.70
2014,08,24,09,11,17.80
2014,08,24,09,12,17.90
2014,08,24,09,13,18.00
2014,08,24,09,14,17.90
2014,08,24,09,15,18.00
2014,08,24,09,16,17.90
2014,08,24,09,17,17.90
2014,08,24,09,18,17.90
2014,08,24,09,19,17.90
2014,08,24,09,20,17.90
2014,08,24,09,21,18.00
2014,08,24,09,22,18.00
2014,08,24,09,23,18.10
2014,08,24,09,24,18.20
2014,08,24,09,25,18.20
2014,08,24,09,26,18.30
2014,08,24,09,27,18.30
2014,08,24,09,28,18.30
2014,08,24,09,29,18.30
2014,08,24,09,30,18.30
2014,08,24,09,31,18.30
2014,08,24,09,32,18.30
2014,08,24,09,33,18.40
2014,08,24,09,34,18.40
2014,08,24,09,35,18.30
2014,08,24,09,36,18.30
2014,08,24,09,37,18.30
2014,08,24,09,38,18.30
2014,08,24,09,39,18.30
2014,08,24,09,40,18.40
2014,08,24,09,41,18.40
2014,08,24,09,42,18.40
2014,08,24,09,43,18.50
2014,08,24,09,44,18.50
2014,08,24,09,45,18.50
2014,08,24,09,46,18.40
2014,08,24,09,47,18.40
2014,08,24,09,48,18.40
2014,08,24,09,49,18.40
2014,08,24,09,50,18.40
2014,08,24,09,51,18.50
2014,08,24,09,52,18.50
2014,08,24,09,53,18.60
2014,08,24,09,54,18.60
2014,08,24,09,55,18.70
2014,08,24,09,56,18.70
2014,08,24,09,57,18.80
2014,08,24,09,58,18.80
2014,08,24,09,59,18.90
2014,08,24,10,00,18.90
2014,08,24,10,01,18.90
2014,08,24,10,02,18.90
2014,08,24,10,03,18.90
2014,08,24,10,04,18.90
2014,08,24,10,05,18.90
2014,08,24,10,06,19.00
2014,08,24,10,07,19.00
2014,08,24,10,08,19.10
2014,08,24,10,09,19.20
2014,08,24,10,10,19.20
2014,08,24,10,11,19.20
2014,08,24,10,12,19.20
2014,08,24,10,13,19.20
2014,08,24,10,14,19.20
2014,08,24,10,15,19.10
2014,08,24,10,16,19.00
2014,08,24,10,17,18.90
2014,08,24,10,18,18.90
2014,08,24,10,19,19.00
2014,08,24,10,20,19.10
2014,08,24,10,21,19.20
2014,08,24,10,22,19.20
2014,08,24,10,23,19.20
2014,08,24,10,24,19.20
2014,08,24,10,25,19.30
2014,08,24,10,26,19.40
2014,08,24,10,27,19.40
2014,08,24,10,28,19.50
2014,08,24,10,29,19.60
2014,08,24,10,30,19.60
2014,08,24,10,31,19.70
2014,08,24,10,32,19.70
2014,08,24,10,33,19.70
2014,08,24,10,34,19.70
2014,08,24,10,35,19.70
2014,08,24,10,36,19.70
2014,08,24,10,37,19.70
2014,08,24,10,38,19.80
2014,08,24,10,39,19.80
2014,08,24,10,40,19.90
2014,08,24,10,41,20.00
2014,08,24,10,42,20.10
2014,08,24,10,43,20.10
2014,08,24,10,44,20.10
2014,08,24,10,45,20.00
2014,08,24,10,46,20.00
2014,08,24,10,47,19.90
2014,08,24,10,48,19.90
2014,08,24,10,49,19.90
2014,08,24,10,50,19.80
2014,08,24,10,51,19.80
2014,08,24,10,52,19.80
2014,08,24,10,53,19.90
2014,08,24,10,54,19.90
2014,08,24,10,55,19.90
2014,08,24,10,56,19.90
2014,08,24,10,57,19.90
2014,08,24,10,58,19.90
2014,08,24,10,59,19.90
2014,08,24,11,00,19.90
2014,08,24,11,01,19.90
2014,08,24,11,02,20.00
2014,08,24,11,03,20.10
2014,08,24,11,04,20.10
2014,08,24,11,05,20.20
2014,08,24,11,06,20.10
2014,08,24,11,07,20.20
2014,08,24,11,08,20.20
2014,08,24,11,09,20.30
2014,08,24,11,10,20.30
2014,08,24,11,11,20.40
2014,08,24,11,12,20.50
2014,08,24,11,13,20.50
2014,08,24,11,14,20.50
2014,08,24,11,15,20.30
2014,08,24,11,16,20.30
2014,08,24,11,17,20.30
2014,08,24,11,18,20.40
2014,08,24,11,19,20.50
2014,08,24,11,20,20.60
2014,08,24,11,21,20.60
2014,08,24,11,22,20.60
2014,08,24,11,23,20.60
2014,08,24,11,24,20.60
2014,08,24,11,25,20.60
2014,08,24,11,26,20.60
2014,08,24,11,27,20.70
2014,08,24,11,28,20.70
2014,08,24,11,29,20.70
2014,08,24,11,30,20.80
2014,08,24,11,31,20.90
2014,08,24,11,32,21.00
2014,08,24,11,33,21.10
2014,08,24,11,34,21.10
2014,08,24,11,35,21.00
2014,08,24,11,36,21.00
2014,08,24,11,37,21.00
2014,08,24,11,38,20.90
2014,08,24,11,39,20.90
2014,08,24,11,40,20.90
2014,08,24,11,41,20.90
2014,08,24,11,42,20.90
2014,08,24,11,43,21.00
2014,08,24,11,44,21.00
2014,08,24,11,45,21.10
2014,08,24,11,46,21.20
2014,08,24,11,47,21.30
2014,08,24,11,48,21.30
2014,08,24,11,49,21.40
2014,08,24,11,50,21.40
2014,08,24,11,51,21.30
2014,08,24,11,52,21.30
2014,08,24,11,53,21.20
2014,08,24,11,54,21.30
2014,08,24,11,55,21.30
2014,08,24,11,56,21.30
2014,08,24,11,57,21.30
2014,08,24,11,58,21.30
2014,08,24,11,59,21.40
2014,08,24,12,00,21.40
2014,08,24,12,01,21.60
2014,08,24,12,02,21.70
2014,08,24,12,03,21.70
2014,08,24,12,04,21.80
2014,08,24,12,05,21.90
2014,08,24,12,06,21.90
2014,08,24,12,07,22.00
2014,08,24,12,08,22.00
2014,08,24,12,09,22.00
2014,08,24,12,10,22.00
2014,08,24,12,11,22.10
2014,08,24,12,12,22.10
2014,08,24,12,13,22.10
2014,08,24,12,14,22.10
2014,08,24,12,15,22.20
2014,08,24,12,16,22.20
2014,08,24,12,17,22.20
2014,08,24,12,18,22.20
2014,08,24,12,19,22.20
2014,08,24,12,20,22.20
2014,08,24,12,21,22.20
2014,08,24,12,22,22.20
2014,08,24,12,23,22.10
2014,08,24,12,24,22.10
2014,08,24,12,25,21.90
2014,08,24,12,26,21.80
2014,08,24,12,27,21.80
2014,08,24,12,28,21.80
2014,08,24,12,29,21.80
2014,08,24,12,30,21.80
2014,08,24,12,31,21.90
2014,08,24,12,32,21.90
2014,08,24,12,33,21.90
2014,08,24,12,34,21.90
2014,08,24,12,35,22.00
2014,08,24,12,36,22.00
2014,08,24,12,37,22.10
2014,08,24,12,38,22.10
2014,08,24,12,39,22.20
2014,08,24,12,40,22.20
2014,08,24,12,41,22.30
2014,08,24,12,42,22.30
2014,08,24,12,43,22.50
2014,08,24,12,44,22.60
2014,08,24,12,45,22.80
2014,08,24,12,46,22.90
2014,08,24,12,47,22.90
2014,08,24,12,48,22.90
2014,08,24,12,49,22.90
2014,08,24,12,50,22.80
2014,08,24,12,51,22.90
2014,08,24,12,52,22.90
2014,08,24,12,53,22.80
2014,08,24,12,54,22.90
2014,08,24,12,55,23.00
2014,08,24,12,56,23.20
2014,08,24,12,57,23.30
2014,08,24,12,58,23.50
2014,08,24,12,59,23.60
2014,08,24,13,00,23.50
2014,08,24,13,01,23.50
2014,08,24,13,02,23.40
2014,08,24,13,03,23.40
2014,08,24,13,04,23.50
2014,08,24,13,05,23.60
2014,08,24,13,06,23.60
2014,08,24,13,07,23.60
2014,08,24,13,08,23.60
2014,08,24,13,09,23.70
2014,08,24,13,10,23.70
2014,08,24,13,11,23.80
2014,08,24,13,12,23.90
2014,08,24,13,13,24.00
2014,08,24,13,14,24.00
2014,08,24,13,15,24.10
2014,08,24,13,16,24.20
2014,08,24,13,17,24.20
2014,08,24,13,18,24.30
2014,08,24,13,19,24.30
2014,08,24,13,20,24.20
2014,08,24,13,21,24.20
2014,08,24,13,22,24.20
2014,08,24,13,23,24.20
2014,08,24,13,24,24.20
2014,08,24,13,25,24.20
2014,08,24,13,26,24.20
2014,08,24,13,27,24.10
2014,08,24,13,28,24.00
2014,08,24,13,29,23.80
2014,08,24,13,30,23.60
2014,08,24,13,31,23.50
2014,08,24,13,32,23.40
2014,08,24,13,33,23.30
2014,08,24,13,34,23.30
2014,08,24,13,35,23.20
2014,08,24,13,36,23.10
2014,08,24,13,37,23.10
2014,08,24,13,38,23.10
2014,08,24,13,39,23.10
2014,08,24,13,40,23.10
2014,08,24,13,41,23.10
2014,08,24,13,42,23.00
2014,08,24,13,43,22.90
2014,08,24,13,44,22.80
2014,08,24,13,45,22.80
2014,08,24,13,46,22.80
2014,08,24,13,47,22.80
2014,08,24,13,48,22.80
2014,08,24,13,49,22.80
2014,08,24,13,50,22.80
2014,08,24,13,51,22.80
2014,08,24,13,52,22.80
2014,08,24,13,53,22.90
2014,08,24,13,54,23.00
2014,08,24,13,55,23.20
2014,08,24,13,56,23.30
2014,08,24,13,57,23.30
2014,08,24,13,58,23.30
2014,08,24,13,59,23.30
2014,08,24,14,00,23.30
2014,08,24,14,01,23.30
2014,08,24,14,02,23.30
2014,08,24,14,03,23.30
2014,08,24,14,04,23.30
2014,08,24,14,05,23.30
2014,08,24,14,06,23.30
2014,08,24,14,07,23.30
2014,08,24,14,08,23.20
2014,08,24,14,09,23.20
2014,08,24,14,10,23.20
2014,08,24,14,11,23.20
2014,08,24,14,12,23.30
2014,08,24,14,13,23.30
2014,08,24,14,14,23.30
2014,08,24,14,15,23.40
2014,08,24,14,16,23.40
2014,08,24,14,17,23.40
2014,08,24,14,18,23.50
2014,08,24,14,19,23.60
2014,08,24,14,20,23.70
2014,08,24,14,21,23.80
2014,08,24,14,22,23.90
2014,08,24,14,23,23.90
2014,08,24,14,24,23.80
2014,08,24,14,25,23.80
2014,08,24,14,26,23.80
2014,08,24,14,27,23.80
2014,08,24,14,28,23.80
2014,08,24,14,29,23.80
2014,08,24,14,30,23.80
2014,08,24,14,31,23.80
2014,08,24,14,32,23.80
2014,08,24,14,33,23.80
2014,08,24,14,34,23.80
2014,08,24,14,35,23.80
2014,08,24,14,36,23.80
2014,08,24,14,37,23.80
2014,08,24,14,38,23.70
2014,08,24,14,39,23.70
2014,08,24,14,40,23.80
2014,08,24,14,41,23.90
2014,08,24,14,42,24.10
2014,08,24,14,43,24.20
2014,08,24,14,44,24.30
2014,08,24,14,45,24.30
2014,08,24,14,46,24.30
2014,08,24,14,47,24.30
2014,08,24,14,48,24.30
2014,08,24,14,49,24.30
2014,08,24,14,50,24.30
2014,08,24,14,51,24.40
2014,08,24,14,52,24.40
2014,08,24,14,53,24.40
2014,08,24,14,54,24.50
2014,08,24,14,55,24.50
2014,08,24,14,56,24.50
2014,08,24,14,57,24.50
2014,08,24,14,58,24.50
2014,08,24,14,59,24.50
2014,08,24,15,00,24.60
2014,08,24,15,01,24.60
2014,08,24,15,02,24.60
2014,08,24,15,03,24.60
2014,08,24,15,04,24.70
2014,08,24,15,05,24.70
2014,08,24,15,06,24.70
2014,08,24,15,07,24.70
2014,08,24,15,08,24.70
2014,08,24,15,09,24.60
2014,08,24,15,10,24.60
2014,08,24,15,11,24.60
2014,08,24,15,12,24.60
2014,08,24,15,13,24.50
2014,08,24,15,14,24.50
2014,08,24,15,15,24.50
2014,08,24,15,16,24.50
2014,08,24,15,17,24.50
2014,08,24,15,18,24.40
2014,08,24,15,19,24.40
2014,08,24,15,20,24.50
2014,08,24,15,21,24.50
2014,08,24,15,22,24.50
2014,08,24,15,23,24.60
2014,08,24,15,24,24.70
2014,08,24,15,25,24.80
2014,08,24,15,26,24.80
2014,08,24,15,27,24.90
2014,08,24,15,28,25.00
2014,08,24,15,29,25.00
2014,08,24,15,30,24.90
2014,08,24,15,31,24.90
2014,08,24,15,32,24.80
2014,08,24,15,33,24.70
2014,08,24,15,34,24.70
2014,08,24,15,35,24.80
2014,08,24,15,36,24.90
2014,08,24,15,37,24.90
2014,08,24,15,38,24.90
2014,08,24,15,39,24.90
2014,08,24,15,40,24.90
2014,08,24,15,41,24.90
2014,08,24,15,42,24.90
2014,08,24,15,43,24.90
2014,08,24,15,44,25.00
2014,08,24,15,45,25.10
2014,08,24,15,46,25.10
2014,08,24,15,47,25.10
2014,08,24,15,48,25.10
2014,08,24,15,49,25.00
2014,08,24,15,50,25.00
2014,08,24,15,51,25.00
2014,08,24,15,52,24.90
2014,08,24,15,53,24.90
2014,08,24,15,54,24.90
2014,08,24,15,55,24.80
2014,08,24,15,56,24.80
2014,08,24,15,57,24.90
2014,08,24,15,58,24.90
2014,08,24,15,59,24.90
2014,08,24,16,00,25.00
2014,08,24,16,01,25.10
2014,08,24,16,02,25.20
2014,08,24,16,03,25.30
2014,08,24,16,04,25.30
2014,08,24,16,05,25.30
2014,08,24,16,06,25.40
2014,08,24,16,07,25.40
2014,08,24,16,08,25.50
2014,08,24,16,09,25.60
2014,08,24,16,10,25.60
2014,08,24,16,11,25.60
2014,08,24,16,12,25.60
2014,08,24,16,13,25.70
2014,08,24,16,14,25.70
2014,08,24,16,15,25.70
2014,08,24,16,16,25.70
2014,08,24,16,17,25.70
2014,08,24,16,18,25.80
2014,08,24,16,19,25.90
2014,08,24,16,20,25.90
2014,08,24,16,21,26.00
2014,08,24,16,22,26.10
2014,08,24,16,23,26.10
2014,08,24,16,24,26.10
2014,08,24,16,25,26.10
2014,08,24,16,26,26.10
2014,08,24,16,27,26.10
2014,08,24,16,28,26.10
2014,08,24,16,29,26.10
2014,08,24,16,30,26.10
2014,08,24,16,31,26.10
2014,08,24,16,32,26.10
2014,08,24,16,33,26.10
2014,08,24,16,34,26.10
2014,08,24,16,35,26.10
2014,08,24,16,36,26.10
2014,08,24,16,37,26.10
2014,08,24,16,38,26.10
2014,08,24,16,39,26.10
2014,08,24,16,40,26.10
2014,08,24,16,41,26.10
2014,08,24,16,42,26.10
2014,08,24,16,43,26.10
2014,08,24,16,44,26.10
2014,08,24,16,45,26.10
2014,08,24,16,46,26.10
2014,08,24,16,47,26.10
2014,08,24,16,48,26.10
2014,08,24,16,49,26.10
2014,08,24,16,50,26.10
2014,08,24,16,51,26.10
2014,08,24,16,52,26.20
2014,08,24,16,53,26.20
2014,08,24,16,54,26.10
2014,08,24,16,55,26.10
2014,08,24,16,56,26.10
2014,08,24,16,57,26.10
2014,08,24,16,58,26.10
2014,08,24,16,59,26.10
2014,08,24,17,00,26.20
2014,08,24,17,01,26.20
2014,08,24,17,02,26.20
2014,08,24,17,03,26.20
2014,08,24,17,04,26.30
2014,08,24,17,05,26.40
2014,08,24,17,06,26.60
2014,08,24,17,07,26.70
2014,08,24,17,08,26.80
2014,08,24,17,09,26.90
2014,08,24,17,10,26.90
2014,08,24,17,11,27.00
2014,08,24,17,12,27.10
2014,08,24,17,13,27.20
2014,08,24,17,14,27.30
2014,08,24,17,15,27.40
2014,08,24,17,16,27.30
2014,08,24,17,17,27.30
2014,08,24,17,18,27.40
2014,08,24,17,19,27.40